Tignall, GA

11:39 AM EDT on August 27, 2016 (GMT -0400)
Washington-Wilkes County

Weather History for KIIY - February, 2014

Change the Weather History Date:

Friday, February 21, 2014

  Actual Average (KDBN) Record (KDBN)
Temperature  
Mean Temperature 52 °F -  
Max Temperature 64 °F 65 °F 83 °F (1986)
Min Temperature 39 °F 38 °F 23 °F (1959)
Degree Days  
Heating Degree Days 14    
Growing Degree Days 2 (Base 50)    
Moisture  
Dew Point 43 °F    
Average Humidity 64    
Maximum Humidity 100    
Minimum Humidity 22    
Precipitation  
Precipitation 0.00 in - - ()
Sea Level Pressure  
Sea Level Pressure 29.96 in    
Wind  
Wind Speed 8 mph (WSW)    
Max Wind Speed 18 mph    
Max Gust Speed 34 mph    
Visibility 10 miles    
Events Rain , Thunderstorm    
Averages and records for this station are not official NWS values.
T = Trace of Precipitation, MM = Missing Value Source: NWS Daily Summary

Daily Weather History Graph

Daily Weather History Graph

Search for Another Location

Airport or City:

Trip Planner

Search our weather history database for the weather conditions in past years. The results will help you decide how hot, cold, wet, or windy it might be!

Date:

Astronomy

Feb. 21, 2014 Rise Set
Actual Time 7:09 AM EST 6:20 PM EST
Civil Twilight 6:43 AM EST 6:46 PM EST
Nautical Twilight 6:14 AM EST 7:15 PM EST
Astronomical Twilight 5:46 AM EST 7:44 PM EST
Moon No Moon Rise 10:51 AM EST (2/21)
Length of Visible Light 12h 02m
Length of Day
11h 11m
Waning Gibbous, 61% of the Moon is Illuminated
Feb 21
Waning Gibbous
Feb 22
Last Quarter
Mar 1
New
Mar 8
First Quarter
Mar 16
Full

Hourly Weather History & Observations

Time (EST) Temp. Windchill Dew Point Humidity Pressure Visibility Wind Dir Wind Speed Gust Speed Precip Events Conditions
12:15 AM 64.4 °F - 55.4 °F 73% 29.94 in 10.0 mi South 6.9 mph - N/A   Clear
12:35 AM 62.6 °F - 55.4 °F 77% 29.94 in 10.0 mi SSW 5.8 mph - N/A   Clear
12:55 AM 62.6 °F - 55.4 °F 77% 29.94 in 10.0 mi South 5.8 mph - N/A   Clear
1:15 AM 62.6 °F - 55.4 °F 77% 29.94 in 10.0 mi South 5.8 mph - N/A   Clear
1:35 AM 62.6 °F - 55.4 °F 77% 29.94 in 10.0 mi South 6.9 mph - N/A   Clear
1:55 AM 62.6 °F - 55.4 °F 77% 29.94 in 10.0 mi South 6.9 mph - N/A   Clear
2:15 AM 62.6 °F - 57.2 °F 82% 29.92 in 10.0 mi SSE 8.1 mph - N/A   Clear
2:35 AM 62.6 °F - 59.0 °F 88% 29.91 in 10.0 mi SSE 10.4 mph 17.3 mph N/A   Clear
2:55 AM 62.6 °F - 59.0 °F 88% 29.90 in 10.0 mi SSE 10.4 mph - N/A   Clear
3:15 AM 62.6 °F - 60.8 °F 94% 29.90 in 10.0 mi South 6.9 mph - N/A   Clear
3:35 AM 62.6 °F - 60.8 °F 94% 29.89 in 10.0 mi South 5.8 mph - N/A   Clear
3:55 AM 60.8 °F - 60.8 °F 100% 29.88 in 10.0 mi South 4.6 mph - N/A   Scattered Clouds
4:15 AM 62.6 °F - 62.6 °F 100% 29.88 in 10.0 mi South 6.9 mph - N/A   Overcast
4:35 AM 62.6 °F - 62.6 °F 100% 29.87 in 10.0 mi SSE 6.9 mph - N/A   Overcast
4:55 AM 62.6 °F - 62.6 °F 100% 29.85 in 10.0 mi SSE 8.1 mph - N/A   Overcast
5:15 AM 62.6 °F - 62.6 °F 100% 29.85 in 10.0 mi South 9.2 mph - N/A   Overcast
5:35 AM 62.6 °F - 62.6 °F 100% 29.85 in 10.0 mi South 10.4 mph 17.3 mph N/A   Overcast
5:55 AM 64.4 °F - 64.4 °F 100% 29.86 in 10.0 mi South 9.2 mph 16.1 mph N/A Thunderstorm Overcast
6:15 AM 64.4 °F - 64.4 °F 100% 29.87 in 10.0 mi SSW 8.1 mph 16.1 mph N/A Thunderstorm Overcast
6:35 AM 64.4 °F - 64.4 °F 100% 29.89 in 5.0 mi SW 9.2 mph 16.1 mph N/A Rain , Thunderstorm Heavy Thunderstorms and Rain
6:55 AM 64.4 °F - 64.4 °F 100% 29.90 in 3.0 mi SW 9.2 mph 20.7 mph N/A Rain , Thunderstorm Heavy Thunderstorms and Rain
7:15 AM 64.4 °F - - N/A% 29.90 in 7.0 mi SSW 9.2 mph 20.7 mph N/A Rain Rain
7:35 AM 64.4 °F - - N/A% 29.92 in 4.0 mi West 15.0 mph 29.9 mph N/A Rain Heavy Rain
7:55 AM 62.6 °F - 62.6 °F 100% 29.92 in 7.0 mi WSW 11.5 mph 25.3 mph N/A Rain , Thunderstorm Rain
8:15 AM 62.6 °F - 62.6 °F 100% 29.92 in 7.0 mi SW 5.8 mph - N/A Rain , Thunderstorm Thunderstorms and Rain
8:35 AM 62.6 °F - - N/A% 29.91 in 10.0 mi SSW 6.9 mph - N/A Rain Light Rain
8:55 AM 62.6 °F - - N/A% 29.91 in 10.0 mi South 4.6 mph - N/A Rain Light Rain
9:15 AM 57.2 °F - 57.2 °F 100% 29.95 in 4.0 mi WNW 17.3 mph 34.5 mph N/A Rain Rain
9:35 AM 53.6 °F - 53.6 °F 100% 29.95 in 10.0 mi WNW 10.4 mph - N/A   Mostly Cloudy
9:55 AM 53.6 °F - 51.8 °F 94% 29.94 in 10.0 mi West 10.4 mph - N/A   Mostly Cloudy
10:15 AM 53.6 °F - 51.8 °F 94% 29.94 in 10.0 mi WNW 11.5 mph - N/A   Scattered Clouds
10:35 AM 53.6 °F - 50.0 °F 88% 29.95 in 10.0 mi WNW 11.5 mph 17.3 mph N/A   Clear
10:55 AM 53.6 °F - 48.2 °F 82% 29.96 in 10.0 mi West 9.2 mph - N/A   Scattered Clouds
11:15 AM 53.6 °F - 48.2 °F 82% 29.96 in 10.0 mi West 11.5 mph - N/A   Mostly Cloudy
11:35 AM 53.6 °F - 48.2 °F 82% 29.96 in 10.0 mi West 12.7 mph 18.4 mph N/A   Mostly Cloudy
11:55 AM 57.2 °F - 48.2 °F 72% 29.97 in 10.0 mi West 9.2 mph - N/A   Scattered Clouds
12:15 PM 59.0 °F - 46.4 °F 63% 29.96 in 10.0 mi West 12.7 mph 16.1 mph N/A   Clear
12:35 PM 60.8 °F - 42.8 °F 52% 29.96 in 10.0 mi West 18.4 mph - N/A   Clear
12:55 PM 62.6 °F - 41.0 °F 45% 29.96 in 10.0 mi West 15.0 mph 20.7 mph N/A   Clear
1:15 PM 62.6 °F - 37.4 °F 39% 29.95 in 10.0 mi WNW 11.5 mph 17.3 mph N/A   Clear
1:35 PM 62.6 °F - 33.8 °F 34% 29.95 in 10.0 mi NW 6.9 mph 17.3 mph N/A   Clear
1:55 PM 62.6 °F - 32.0 °F 32% 29.96 in 10.0 mi West 17.3 mph 20.7 mph N/A   Clear
2:15 PM 62.6 °F - 24.8 °F 24% 29.96 in 10.0 mi WNW 11.5 mph 25.3 mph N/A   Clear
2:35 PM 62.6 °F - 30.2 °F 30% 29.96 in 10.0 mi West 12.7 mph - N/A   Clear
2:55 PM 62.6 °F - 32.0 °F 32% 29.96 in 10.0 mi WNW 13.8 mph 19.6 mph N/A   Clear
3:15 PM 62.6 °F - 32.0 °F 32% 29.96 in 10.0 mi West 12.7 mph 17.3 mph N/A   Clear
3:35 PM 62.6 °F - 26.6 °F 26% 29.96 in 10.0 mi West 12.7 mph 20.7 mph N/A   Clear
3:55 PM 64.4 °F - 24.8 °F 22% 29.97 in 10.0 mi West 12.7 mph 17.3 mph N/A   Clear
4:15 PM 64.4 °F - 26.6 °F 24% 29.97 in 10.0 mi West 12.7 mph 18.4 mph N/A   Clear
4:35 PM 64.4 °F - 26.6 °F 24% 29.98 in 10.0 mi West 12.7 mph - N/A   Clear
4:55 PM 64.4 °F - 28.4 °F 26% 29.99 in 10.0 mi West 10.4 mph 16.1 mph N/A   Clear
5:15 PM 62.6 °F - 26.6 °F 26% 29.99 in 10.0 mi West 10.4 mph - N/A   Clear
5:35 PM 62.6 °F - 30.2 °F 30% 30.00 in 10.0 mi West 6.9 mph - N/A   Clear
5:55 PM 60.8 °F - 32.0 °F 34% 30.00 in 10.0 mi WSW 5.8 mph - N/A   Clear
6:15 PM 57.2 °F - 35.6 °F 44% 30.01 in 10.0 mi West 4.6 mph - N/A   Clear
6:35 PM 53.6 °F - 33.8 °F 47% 30.01 in 10.0 mi WNW 5.8 mph - N/A   Clear
6:55 PM 57.2 °F - 28.4 °F 33% 30.02 in 10.0 mi WNW 6.9 mph - N/A   Clear
7:15 PM 53.6 °F - 26.6 °F 35% 30.02 in 10.0 mi WNW 4.6 mph - N/A   Clear
7:35 PM 53.6 °F - 28.4 °F 38% 30.03 in 10.0 mi WNW 6.9 mph - N/A   Clear
7:55 PM 53.6 °F - 26.6 °F 35% 30.03 in 10.0 mi West 6.9 mph - N/A   Clear
8:15 PM 53.6 °F - 26.6 °F 35% 30.03 in 10.0 mi West 6.9 mph - N/A   Clear
8:35 PM 51.8 °F - 26.6 °F 38% 30.03 in 10.0 mi West 4.6 mph - N/A   Clear
8:55 PM 50.0 °F - 26.6 °F 40% 30.04 in 10.0 mi West 4.6 mph - N/A   Clear
9:15 PM 46.4 °F 44.3 °F 28.4 °F 50% 30.04 in 10.0 mi West 4.6 mph - N/A   Clear
9:35 PM 46.4 °F 43.5 °F 28.4 °F 50% 30.04 in 10.0 mi West 5.8 mph - N/A   Clear
9:55 PM 48.2 °F - 26.6 °F 43% 30.05 in 10.0 mi WNW 5.8 mph - N/A   Clear
10:15 PM 46.4 °F 44.3 °F 26.6 °F 46% 30.05 in 10.0 mi West 4.6 mph - N/A   Clear
10:35 PM 42.8 °F 41.1 °F 32.0 °F 66% 30.06 in 10.0 mi SW 3.5 mph - N/A   Clear
10:55 PM 42.8 °F 41.1 °F 30.2 °F 61% 30.06 in 10.0 mi WSW 3.5 mph - N/A   Clear
11:15 PM 41.0 °F 39.0 °F 32.0 °F 70% 30.06 in 10.0 mi SW 3.5 mph - N/A   Clear
11:35 PM 39.2 °F 35.9 °F 32.0 °F 75% 30.07 in 10.0 mi WSW 4.6 mph - N/A   Clear
11:55 PM 39.2 °F 35.9 °F 32.0 °F 75% 30.08 in 10.0 mi SW 4.6 mph - N/A   Clear